Weather History for Tupelo, MS

Change the Weather History Date:

Thursday, January 10, 2013

  Actual Average Record
Temperature  
Mean Temperature 63 °F 41 °F  
Max Temperature 69 °F 51 °F 77 °F (1949)
Min Temperature 57 °F 32 °F 0 °F (1962)
Degree Days  
Heating Degree Days 2 24  
Month to date heating degree days 216 236  
Since 1 July heating degree days 1303 1409  
Cooling Degree Days 0 0  
Month to date cooling degree days 0 0  
Year to date cooling degree days 0 0  
Growing Degree Days 13 (Base 50)    
Moisture  
Dew Point 61 °F    
Average Humidity 89    
Maximum Humidity 100    
Minimum Humidity 78    
Precipitation  
Precipitation 0.09 in 0.15 in 1.85 in (1975)
Month to date precipitation 2.19 1.50  
Year to date precipitation 2.19 1.50  
Snow  
Snow 0.00 in 0.00 in 0.50 in (1997)
Month to date snowfall T 0.3  
Since 1 July snowfall T 0.6  
Snow Depth 0.00 in    
Sea Level Pressure  
Sea Level Pressure 30.15 in    
Wind  
Wind Speed 11 mph (SSE)    
Max Wind Speed 35 mph    
Max Gust Speed 49 mph    
Visibility 6 miles    
Events Rain    
T = Trace of Precipitation, MM = Missing Value Source: NWS Daily Summary

Daily Weather History Graph

Daily Weather History Graph

Search for Another Location

Airport:

Trip Planner

Search our weather history database for the weather conditions in past years. The results will help you decide how hot, cold, wet, or windy it might be!

Date:

Astronomy

Jan. 10, 2013 Rise Set
Actual Time 7:01 AM CST 5:04 PM CST
Civil Twilight 6:34 AM CST 5:31 PM CST
Nautical Twilight 6:03 AM CST 6:02 PM CST
Astronomical Twilight 5:32 AM CST 6:32 PM CST
Moon 5:41 AM CST (1/10) 4:11 PM CST (1/10)
Length of Visible Light 10h 57m
Length of Day
10h 02m
Waning Crescent, 2% of the Moon is Illuminated
Jan 10
Waning Crescent
Jan 11
New
Jan 18
First Quarter
Jan 26
Full
Feb 3
Last Quarter

Hourly Weather History & Observations

Time (CST) Temp. Dew Point Humidity Pressure Visibility Wind Dir Wind Speed Gust Speed Precip Events Conditions
12:53 AM 57.0 °F 55.9 °F 96% 30.29 in 3.0 mi ENE 3.5 mph - N/A   Overcast
1:00 AM 57.2 °F 55.4 °F 94% 30.29 in 2.5 mi East 3.5 mph - N/A   Overcast
1:08 AM 57.2 °F 55.4 °F 94% 30.29 in 3.0 mi Calm Calm - N/A   Overcast
1:17 AM 57.2 °F 55.4 °F 94% 30.29 in 2.5 mi Calm Calm - N/A   Overcast
1:27 AM 57.2 °F 55.4 °F 94% 30.29 in 4.0 mi ESE 3.5 mph - N/A   Overcast
1:53 AM 59.0 °F 57.0 °F 93% 30.27 in 4.0 mi ESE 5.8 mph - N/A   Overcast
2:06 AM 59.0 °F 57.2 °F 94% 30.27 in 2.5 mi SE 6.9 mph - N/A   Overcast
2:16 AM 59.0 °F 57.2 °F 94% 30.27 in 3.0 mi SE 5.8 mph - N/A   Overcast
2:53 AM 60.1 °F 57.9 °F 93% 30.26 in 5.0 mi SSE 6.9 mph - N/A   Overcast
3:18 AM 60.8 °F 57.2 °F 88% 30.25 in 2.5 mi SE 5.8 mph - N/A   Overcast
3:49 AM 60.8 °F 59.0 °F 94% 30.24 in 1.8 mi SE 4.6 mph - N/A   Overcast
3:53 AM 60.1 °F 57.9 °F 93% 30.24 in 1.8 mi SE 4.6 mph - N/A   Overcast
4:53 AM 60.1 °F 59.0 °F 96% 30.22 in 1.0 mi SE 4.6 mph - N/A   Mist
5:53 AM 60.8 °F 60.8 °F 100% 30.21 in 2.5 mi SSE 8.1 mph - N/A   Overcast
6:02 AM 60.8 °F 60.8 °F 100% 30.21 in 4.0 mi SSE 8.1 mph - N/A   Overcast
6:53 AM 62.1 °F 60.1 °F 93% 30.21 in 6.0 mi SSE 8.1 mph - N/A   Overcast
7:53 AM 62.1 °F 61.0 °F 96% 30.23 in 4.0 mi SSE 9.2 mph - N/A   Overcast
8:53 AM 63.0 °F 61.0 °F 93% 30.23 in 5.0 mi South 6.9 mph - 0.01 in   Overcast
9:53 AM 64.0 °F 62.1 °F 93% 30.21 in 6.0 mi SSE 8.1 mph - 0.00 in   Overcast
10:42 AM 64.4 °F 62.6 °F 94% 30.22 in 6.0 mi South 10.4 mph 19.6 mph N/A   Overcast
10:53 AM 64.9 °F 63.0 °F 93% 30.21 in 5.0 mi South 12.7 mph 19.6 mph N/A   Overcast
11:53 AM 64.9 °F 63.0 °F 93% 30.18 in 4.0 mi South 11.5 mph - N/A   Overcast
12:13 PM 64.4 °F 62.6 °F 94% 30.17 in 2.0 mi South 10.4 mph - N/A   Overcast
12:25 PM 64.4 °F 62.6 °F 94% 30.17 in 1.5 mi South 6.9 mph - N/A   Overcast
12:42 PM 64.4 °F 62.6 °F 94% 30.18 in 2.0 mi SSW 6.9 mph - 0.01 in Rain Light Rain
12:53 PM 64.9 °F 63.0 °F 93% 30.17 in 2.0 mi SSW 6.9 mph - 0.02 in Rain Light Rain
1:03 PM 64.4 °F 62.6 °F 94% 30.18 in 1.8 mi SSW 8.1 mph - 0.01 in Rain Light Rain
1:21 PM 64.4 °F 62.6 °F 94% 30.17 in 2.5 mi SSW 9.2 mph - 0.03 in Rain Light Rain
1:28 PM 64.4 °F 62.6 °F 94% 30.17 in 3.0 mi South 6.9 mph - 0.04 in Rain Light Rain
1:53 PM 64.9 °F 64.0 °F 97% 30.14 in 10.0 mi South 9.2 mph - 0.05 in   Overcast
2:51 PM 66.2 °F 64.4 °F 94% 30.12 in 10.0 mi SSE 9.2 mph - N/A   Overcast
2:53 PM 66.0 °F 64.0 °F 93% 30.12 in 9.0 mi SSE 8.1 mph - N/A   Overcast
3:11 PM 66.2 °F 64.4 °F 94% 30.11 in 10.0 mi SSE 9.2 mph - N/A   Overcast
3:53 PM 66.9 °F 64.0 °F 90% 30.09 in 10.0 mi SSE 11.5 mph - N/A   Overcast
4:12 PM 66.2 °F 64.4 °F 94% 30.04 in 10.0 mi SE 21.9 mph 27.6 mph N/A   Overcast
4:53 PM 68.0 °F 64.0 °F 87% 29.98 in 10.0 mi SSE 25.3 mph 40.3 mph 0.00 in   Mostly Cloudy
5:14 PM 68.0 °F 64.4 °F 88% 29.97 in 10.0 mi South 25.3 mph 43.7 mph 0.00 in Rain Light Rain
5:53 PM 68.0 °F 63.0 °F 84% 29.93 in 10.0 mi SSE 25.3 mph 42.6 mph 0.01 in   Mostly Cloudy
6:53 PM 69.1 °F 63.0 °F 81% 29.97 in 10.0 mi South 18.4 mph 27.6 mph N/A   Scattered Clouds
7:11 PM 69.8 °F 62.6 °F 78% 29.96 in 10.0 mi South 18.4 mph 26.5 mph N/A   Mostly Cloudy
7:53 PM 68.0 °F 63.0 °F 84% 29.97 in 10.0 mi South 17.3 mph 25.3 mph N/A   Overcast
8:53 PM 68.0 °F 63.0 °F 84% 29.99 in 10.0 mi SSW 17.3 mph 23.0 mph N/A   Overcast
9:53 PM 66.9 °F 62.1 °F 84% 30.00 in 10.0 mi SSW 17.3 mph 26.5 mph N/A   Overcast
10:53 PM 66.9 °F 63.0 °F 87% 30.00 in 10.0 mi SSW 13.8 mph - N/A   Overcast
11:53 PM 66.9 °F 63.0 °F 87% 29.99 in 10.0 mi SSW 13.8 mph 21.9 mph N/A   Overcast